#timestamp,LO_Frequency,Hit,StdDev 
1520586015.1,286047000.7,N
1520586035.9,286047000.7,N
1520586055.7,286046998.8,N
1520586075.6,286046998.6,N
1520586095.4,286046998.1,N
1520586115.2,286047000.6,N
1520586135.1,286046998.4,N
1520586136.0,286046998.4,N
1520586155.8,286046998.3,N
1520586175.6,286046998.7,N
1520586195.5,286046998.1,N
1520586215.3,286046998.1,N
1520586235.2,286047001.0,N
1520586255.9,286046999.8,N
1520586275.7,286047000.3,N
1520586295.6,286047000.2,N
1520586315.4,286047000.4,N
1520586335.2,286047001.2,N
1520586355.1,286047001.1,N
1520586356.0,286047001.1,N
1520586375.8,286046998.2,N
1520586395.7,286047000.5,N
1520586415.5,286047001.1,N
1520586435.3,286047001.2,N
1520586455.2,286047000.4,N
1520586475.0,286047002.7,N
1520586475.9,286047002.7,N
1520586495.8,286047000.2,N
1520586515.6,286047002.0,N
1520586535.4,286047000.2,N
1520586555.3,286047000.0,N
1520586575.1,286047000.8,N
1520586595.8,286047000.9,N
1520586615.7,286047000.5,N
1520586635.5,286047002.7,N
1520586655.4,286046999.9,N
1520586675.2,286047002.8,N
1520586695.0,286047002.5,N
1520586695.9,286047002.5,N
1520586715.8,286047002.7,N
1520586735.6,286047000.1,N
1520586755.4,286046999.7,N
1520586775.3,286047000.6,N
1520586795.1,286047001.1,N
1520586815.9,286047000.5,N
1520586835.7,286047001.1,N
1520586855.5,286046998.2,N
1520586875.4,286046998.7,N
1520586895.2,286047000.8,N
1520586915.0,286047001.1,N
1520586916.0,286047001.1,N
1520586935.8,286046998.3,N
1520586955.6,286046999.4,N
1520586975.5,286046996.9,N
1520586995.3,286046997.6,N
1520587015.1,286046995.4,N
1520587035.9,286046997.8,N
1520587055.7,286046997.1,N
1520587075.6,286046997.4,N
1520587095.4,286046997.5,N
1520587115.2,286046998.0,N
1520587135.1,286046995.3,N
1520587136.0,286046995.3,N
1520587155.8,286046995.2,N
1520587175.7,286046996.3,N
1520587195.5,286046996.4,N
1520587215.3,286046994.6,N
1520587265.2,286046994.5,E
1520587275.1,286046997.6,N
1520587295.9,286046996.5,P
1520587315.7,286046996.8,P
1520587335.5,286046999.1,N
1520587355.4,286046996.7,Y
1520587375.2,286047000.1,P
1520587395.0,286047002.8,N
1520587395.9,286047002.8,N
1520587415.8,286047002.8,N
1520587435.6,286047000.0,N
1520587455.5,286047000.9,N
1520587475.3,286047001.2,N
1520587495.1,286047001.0,N
1520587515.9,286046999.0,N
1520587535.7,286046998.8,N
1520587555.7,286046998.1,N
1520587575.5,286046998.7,N
1520587595.4,286046999.2,N
1520587615.2,286046996.5,N
1520587635.0,286046997.0,N
1520587635.9,286046997.0,N
1520587655.8,286046997.4,N
1520587675.6,286046995.5,N
1520587695.5,286046995.4,N
1520587715.3,286046995.7,N
1520587735.1,286046995.6,N
1520587755.9,286046995.1,N
1520587775.7,286046996.4,N
1520587795.5,286046994.1,N
1520587815.4,286046993.8,N
1520587835.2,286046996.0,N
1520587855.1,286046996.1,N
1520587856.0,286046996.1,N
1520587875.8,286046996.0,N
1520587895.6,286046996.2,N
1520587915.5,286046993.9,N
1520587935.3,286046993.9,N
1520587955.1,286046996.3,N
1520587975.9,286046995.8,N
1520587995.7,286046993.7,Y
1520588015.6,286046998.8,P
1520588035.4,286046998.9,N
1520588055.2,286046999.4,N
1520588075.1,286046996.5,Y
1520588076.0,286046996.5,P
1520588095.8,286046998.5,N
1520588115.7,286046998.4,N
1520588135.5,286046998.5,N
1520588155.3,286047000.8,N
1520588175.2,286046998.6,N
1520588195.0,286046998.6,N
1520588195.9,286046998.6,N
1520588215.8,286046998.4,N
1520588235.6,286046997.0,Y
1520588255.4,286046998.6,P
1520588275.3,286047000.8,P
1520588295.1,286046998.9,N
1520588315.9,286047000.5,N
1520588335.7,286046998.5,N
1520588355.5,286046999.2,N
1520588375.4,286046999.6,N
1520588395.2,286046998.9,N
1520588415.0,286046997.0,Y
1520588415.9,286046997.0,P
1520588435.8,286046999.1,N
1520588455.6,286046997.8,N
1520588475.5,286046997.3,N
1520588495.3,286046998.9,N
1520588515.1,286046999.4,N
1520588535.9,286046996.7,Y
1520588555.7,286047001.2,P
1520588575.6,286047000.9,N
1520588595.4,286046998.3,N
1520588615.2,286046999.4,N
1520588635.1,286046998.8,N
1520588636.0,286046998.8,N
1520588655.8,286046999.3,N
1520588675.6,286046999.0,N
1520588695.5,286046999.4,N
1520588715.3,286046999.3,N
1520588735.2,286047000.7,N
1520588755.9,286046998.1,N
1520588775.7,286046998.5,N
1520588795.6,286046998.7,N
1520588815.4,286046999.4,N
1520588835.3,286046998.9,N
1520588855.1,286046998.6,N
1520588856.0,286046998.6,N
1520588875.8,286046998.7,N
1520588895.7,286047001.1,N
1520588915.5,286046998.4,N
1520588935.3,286046999.1,N
1520588955.2,286046996.5,Y
1520588975.0,286046998.5,P
1520588975.9,286046998.5,P
1520588995.8,286046998.3,P
1520589015.6,286047001.1,Y
1520589035.4,286047001.0,P
1520589055.3,286047000.3,N
1520589075.1,286047000.9,N
1520589095.9,286047001.1,N
1520589115.7,286047000.7,N
1520589135.5,286047000.9,N
1520589155.4,286047000.8,N
1520589175.2,286046998.7,N
1520589195.0,286046998.6,N
1520589195.9,286046998.6,N
1520589215.8,286046998.7,N
1520589235.6,286047001.2,N
1520589255.5,286047001.1,N
1520589275.3,286046999.3,N
1520589295.1,286046998.6,N
1520589315.9,286047000.8,N
1520589335.7,286047001.0,N
1520589355.5,286047000.3,N
1520589375.4,286046998.3,N
1520589395.2,286046998.7,N
1520589415.1,286047000.0,N
1520589416.0,286047000.0,N
1520589435.8,286047002.6,N
1520589455.6,286046999.7,N
1520589475.5,286047002.7,N
1520589495.3,286047002.4,N
1520589515.2,286047000.2,N
1520589535.9,286047001.3,N
1520589555.7,286047001.3,N
1520589575.6,286047001.6,N
1520589595.4,286047003.7,N
